Regional Weather Roundup
Issued by NWS

Home | Current Version | Previous Version | Text Only | Print | Product List | Glossary On
Versions: 1 2 3 4 5 6 7 8 9 10 11 12 13 14 15 16 17 18 19 20 21 22 23 24 25 26 27 28 29 30 31 32 33 34 35 36 37 38 39 40 41 42 43 44 45 46 47 48 49 50
000
ASUS43 KLSX 271310
RWRMO

WEATHER SUMMARY FOR MISSOURI
NATIONAL WEATHER SERVICE SPRINGFIELD MO
800 AM CDT TUE JUN 27 2017

NOTE: "FAIR" INDICATES FEW OR NO CLOUDS BELOW 12,000 FEET WITH NO
       SIGNIFICANT WEATHER AND/OR OBSTRUCTIONS TO VISIBILITY.
       CURRENT SKY AND/OR WEATHER CONDITIONS ARE NOT AVAILABLE FOR
       CHILLICOTHE AND FARMINGTON.

MOZ001>031-035>038-043-044-053-054-271400-
...NORTHERN AND WESTERN MISSOURI...

CITY           SKY/WX    TMP DP  RH WIND       PRES   REMARKS
KANSAS CTY INT MOSUNNY   63  59  87 SE12      30.12S
KANSAS C DTWN  SUNNY     64  60  87 E5        30.12S
LEE`S SUMMIT   SUNNY     62  61  96 SE6       30.13S
ST JOSEPH      SUNNY     58  58 100 CALM      30.12S
CHILLICOTHE      N/A     62  60  93 CALM      30.15S
KIRKSVILLE     SUNNY     61  53  75 SE7       30.16S

$$
MOZ066>068-077>081-088>096-101>105-271400-
...SOUTHWEST MISSOURI...

CITY           SKY/WX    TMP DP  RH WIND       PRES   REMARKS
SPRINGFIELD    PTSUNNY   62  60  93 SE8       30.13S
JOPLIN         SUNNY     66  63  90 E5        30.11S
BRANSON        MOSUNNY   64  59  82 E8        30.15R

$$
MOZ032>034-039>042-045>050-055>058-069>072-271400-
...CENTRAL MISSOURI...

CITY           SKY/WX    TMP DP  RH WIND       PRES   REMARKS
COLUMBIA       SUNNY     63  60  90 E3        30.16S
JEFFERSON CITY FOG       58  58 100 E5        30.15S VSB 1/4
ROLLA          SUNNY     62  59  90 E8        30.15S
SEDALIA        SUNNY     63  62  97 SE6       30.15S
WARRENSBURG    SUNNY     59  59 100 E3        30.13S
OSAGE BEACH    SUNNY     60  58  92 S5        30.16S

$$
MOZ051-052-059>065-271400-
...EAST CENTRAL MISSOURI...

CITY           SKY/WX    TMP DP  RH WIND       PRES   REMARKS
ST LOUIS INTL  SUNNY     67  57  70 CALM      30.17R
SPIRIT OF STL  MOSUNNY   59  59 100 W3        30.16R
ST CHARLES     SUNNY     64  60  87 CALM      30.16R

$$
MOZ072>076-082>087-097>100-106>115-271400-
...SOUTH CENTRAL AND SOUTHEAST MISSOURI...

CITY           SKY/WX    TMP DP  RH WIND       PRES   REMARKS
CAPE GIRARDEAU SUNNY     64  56  75 CALM      30.16S
FARMINGTON     MOSUNNY   62  58  86 CALM      30.17S
POPLAR BLUFF   SUNNY     67  63  87 NE3       30.15R
WEST PLAINS    MOSUNNY   63  60  90 E5        30.16S

$$




USA.gov is the U.S. government's official web portal to all federal, state and local government web resources and services.